OpenBCM V1.08-5-g2f4a (Linux)

Packet Radio Mailbox

IZ3LSV

[San Dona' di P. JN]

 Login: GUEST





  
I0OJJ  > KEPS     20.07.25 02:45l 343 Lines 16342 Bytes #150 (0) @ AMSAT
BID : ORB25201.1
Read: GUEST
Subj: 2Line Orbital Elements 25201.AMSAT
Path: IZ3LSV<IK6IHL<IK7NXU<HB9ON<DK0WUE<PD0LPM<IR0AAB<I0OJJ
Sent: 250720/0025z @:I0OJJ.ITA.EU [Rome] obcm1.08-10-g596e
From: I0OJJ @ I0OJJ.ITA.EU (Gustavo)
To:   KEPS @ AMSAT
X-Info: This message was generated automatically


QST de W1STR

AMSAT Orbital Elements for Amateur Satellites in TLE Format
From Orbital Analysis Office
New England Sci-Tech STEM Education Center
Natick, MA July 20, 2025
To all radio amateurs


These element sets describe the orbits of various satellites 
in use by the amateur radio community. For details see:
www.amsat.org/keplerian-elements-formats/

A daily update of element sets is available at:
www.amsat.org/tle/daily-bulletin.txt
or without bulletin text:
www.amsat.org/tle/dailytle.txt


AO-07
1 07530U 74089B   25200.48577541 -.00000037  00000-0  59512-4 0  9990
2 07530 101.9940 205.1753 0012547  47.3573 106.9995 12.53690193318822
UO-11
1 14781U 84021B   25200.50656914  .00001020  00000-0  11286-3 0  9995
2 14781  97.7569 166.0931 0007252 193.6040 166.4984 14.89476462228585
AO-27
1 22825U 93061C   25200.42780219  .00000055  00000-0  38080-4 0  9993
2 22825  98.7346 262.1779 0008349   4.3938 355.7316 14.30809828659411
FO-29
1 24278U 96046B   25200.30718033 -.00000031  00000-0  71342-5 0  9999
2 24278  98.5706  88.9658 0349010 239.5900 117.0321 13.53250619428148
NOAA-15
1 25338U 98030A   25200.84858160  .00000164  00000-0  84919-4 0  9996
2 25338  98.5338 225.0078 0009195 237.6704 122.3587 14.26998608414141
GO-32
1 25397U 98043D   25200.45246938  .00000054  00000-0  43334-4 0  9990
2 25397  98.9727 180.4087 0002388  91.7609 268.3842 14.24322895403966
ISS
1 25544U 98067A   25200.88047434  .00007045  00000-0  13148-3 0  9993
2 25544  51.6336 145.0193 0002201  95.9395 264.1844 15.49961694520239
NO-44
1 26931U 01043C   25200.46359851  .00000083  00000-0  62261-4 0  9991
2 26931  67.0511  24.7179 0006312 276.9362  83.1022 14.31749877242814
SO-50
1 27607U 02058C   25200.37464112  .00000774  00000-0  11371-3 0  9998
2 27607  64.5528  77.6889 0060636 325.4119  34.3048 14.81718808215124
CO-55
1 27844U 03031E   25200.44925376  .00000239  00000-0  12320-3 0  9996
2 27844  98.6760 208.2084 0010872  74.1169 286.1207 14.24020818144312
CO-57
1 27848U 03031J   25200.48663240  .00000204  00000-0  10923-3 0  9992
2 27848  98.6787 208.2209 0010802  89.3039 270.9377 14.23352219144042
RS-22
1 27939U 03042A   25200.84647594  .00000894  00000-0  14930-3 0  9996
2 27939  98.3312  11.2787 0010316 239.1579 252.7437 14.72427489166754
CO-58
1 28895U 05043F   25200.37710026  .00001223  00000-0  20693-3 0  9990
2 28895  98.2545 345.2372 0014644 176.0509 184.0815 14.71116094 52794
CO-65
1 32785U 08021C   25200.57474591  .00003689  00000-0  26592-3 0  9990
2 32785  97.7875 172.0477 0011905  80.3087 279.9483 15.04737033935091
CO-66
1 32791U 08021J   25200.48942423  .00010023  00000-0  47559-3 0  9997
2 32791  97.7292 181.4460 0004965  54.1457 306.0238 15.19465266936559
RS-30
1 32953U 08025A   25200.80242362  .00000041  00000-0  22352-3 0  9995
2 32953  82.5011 202.1640 0018412 321.2790  38.6969 12.43166387778538
NOAA-19
1 33591U 09005A   25200.83811954  .00000141  00000-0  99326-4 0  9992
2 33591  98.9954 265.7651 0012788 248.1132 111.8680 14.13391242847796
SRMSAT
1 37841U 11058D   25200.55311649  .00000374  00000-0  59174-4 0  9995
2 37841  19.9716 272.6574 0011794 143.7704 343.6407 14.11445298710766
ZACUBE-1
1 39417U 13066B   25200.42877305  .00003906  00000-0  33913-3 0  9995
2 39417  97.7814 157.2426 0041745 279.2400  80.4102 14.96957506630875
Delfi-N3xt
1 39428U 13066N   25200.48890101  .00003348  00000-0  34189-3 0  9998
2 39428  97.8321 117.7028 0082780 228.4069 131.0033 14.88776859625018
GOMX-1
1 39430U 13066Q   25200.84582192  .00001641  00000-0  25916-3 0  9991
2 39430  97.6801  57.0327 0133667  63.8315 297.6567 14.67771709621312
LO-74
1 39440U 13066AA  25200.56685732  .00003302  00000-0  33443-3 0  9995
2 39440  97.8495 144.8574 0063062  49.1294 311.5364 14.90160113627399
AO-73
1 39444U 13066AE  25200.76996445  .00005068  00000-0  37701-3 0  9999
2 39444  97.7849 162.8513 0040455 249.6870 110.0005 15.02775863630213
DTUSAT-2
1 40030U 14033W   25200.48913414  .00004934  00000-0  31914-3 0  9992
2 40030  98.0565 174.2547 0007478 288.3726  71.6688 15.08676718602412
EO-80
1 40032U 14033Y   25200.90521657  .00004690  00000-0  30288-3 0  9997
2 40032  98.0451 174.2903 0007393 213.5612 146.5147 15.08760091602975
LILACSAT-2
1 40908U 15049K   25200.84859841  .00010003  00000-0  25509-3 0  9994
2 40908  97.5051 222.1851 0009459  28.1442 332.0313 15.39685938544420
IO-86
1 40931U 15052B   25151.18580175  .00001241  00000-0  78118-4 0  9996
2 40931   6.0006  24.0987 0012733 338.8432  21.1169 14.78805930523047
Horyu-4
1 41340U 16012D   25200.39910734  .00016291  00000-0  41448-3 0  9990
2 41340  30.9953 223.8649 0006625 122.4323 237.6964 15.38292434518926
Lapan A3
1 41603U 16040E   25200.85426586  .00002604  00000-0  91745-4 0  9990
2 41603  97.1378 203.8876 0012625 120.9815 239.2669 15.30082530503942
CAS-2T
1 41847U 16066G   25200.46914490  .00000956  00000-0  14351-3 0  9996
2 41847  98.4187 274.5799 0346695  57.9609 305.4765 14.43595638456772
CAS-4B
1 42759U 17034B   25200.84594359  .00071953  00000-0  61204-3 0  9999
2 42759  43.0057  81.0031 0021696 217.3882 142.5476 15.68362534448914
CAS-4A
1 42761U 17034D   25200.84195679  .00077443  00000-0  61356-3 0  9992
2 42761  43.0094  77.6811 0022890 221.8995 138.0121 15.70009861448941
TechnoSat
1 42829U 17042E   25200.82110381  .00003448  00000-0  26742-3 0  9995
2 42829  97.3878   7.5987 0017181 141.1459 219.1005 15.01894077436764
AO-91
1 43017U 17073E   25200.88424516  .00007906  00000-0  39912-3 0  9999
2 43017  97.5210  70.6370 0171957  29.8706 331.2200 15.05315943415272
S-Net D
1 43186U 18014G   25200.47175893  .00003987  00000-0  23494-3 0  9991
2 43186  97.5585 102.9719 0010828  88.7450 271.5021 15.12123689408405
S-Net B
1 43187U 18014H   25200.27916061  .00004117  00000-0  24258-3 0  9995
2 43187  97.5591 102.7550 0011482  85.2175 275.0366 15.12101236408378
S-Net A
1 43188U 18014J   25200.47201283  .00003964  00000-0  23354-3 0  9996
2 43188  97.5599 103.1012 0011412  85.2603 274.9930 15.12128793408400
S-Net C
1 43189U 18014K   25200.61254424  .00004304  00000-0  25331-3 0  9994
2 43189  97.5612 103.2614 0012844  78.2769 281.9901 15.12100358406974
Ten-Koh
1 43677U 18084G   25200.46991109  .00001704  00000-0  13959-3 0  9998
2 43677  98.0847  14.3041 0008889 125.5794 234.6258 15.00716789366227
PO-101
1 43678U 18084H   25200.85626224  .00001903  00000-0  16441-3 0  9995
2 43678  98.1072  18.5241 0009089 140.6646 219.5237 14.98483083366418
QO-100
1 43700U 18090A   25200.85517993  .00000147  00000-0  00000+0 0  9999
2 43700   0.0161  77.7701 0002592  84.1397 109.6236  1.00273145 24582
MinXSS-2
1 43758U 18099A   25200.45459052  .00011420  00000-0  43637-3 0  9991
2 43758  97.5000 266.6423 0011512  23.9997 336.1775 15.26723524363054
AO-95
1 43770U 18099N   25200.60761930  .00006536  00000-0  32597-3 0  9998
2 43770  97.4892 258.2601 0012011  77.3328 282.9248 15.17807540362623
RANGE-A
1 43773U 18099R   25200.57982843  .00002911  00000-0  18580-3 0  9994
2 43773  97.4462 247.8234 0012672  60.3577 299.8913 15.09381264362252
MOVE-II
1 43780U 18099Y   25194.80194206  .15913345  26116-5  37118-3 0  9995
2 43780  97.4526 273.8800 0018736 270.1080  89.8075 16.44566529363241
SNUSat 2
1 43782U 18099AA  25200.56971044  .00005787  00000-0  31219-3 0  9992
2 43782  97.4575 254.6457 0012165  23.4555 336.7230 15.15077008362554
SnugLite
1 43784U 18099AC  25200.56306143  .00007401  00000-0  36560-3 0  9995
2 43784  97.4389 254.2829 0003966  41.7354 318.4182 15.18145103362702
ITASat 1
1 43786U 18099AE  25200.88502386  .00005272  00000-0  29860-3 0  9998
2 43786  97.4546 254.3443 0015691  70.6278 289.6648 15.13337021362552
EAGLET 1
1 43790U 18099AJ  25200.59717749  .00002712  00000-0  17367-3 0  9997
2 43790  97.4742 253.8853 0013351  57.7536 302.4985 15.09323237362106
ESEO
1 43792U 18099AL  25200.08934881  .00001510  00000-0  11725-3 0  9998
2 43792  97.4424 246.1204 0013072  30.8847 329.3145 15.02715975361750
CSIM
1 43793U 18099AM  25200.78179751  .00515798  00000-0  17430-2 0  9999
2 43793  97.4753 282.1073 0002231 269.0692  91.0324 15.88748556363994
JO-97
1 43803U 18099AX  25200.57834700  .00008985  00000-0  40134-3 0  9993
2 43803  97.4642 259.3112 0007273  18.5154 341.6345 15.21554490362854
Suomi 100
1 43804U 18099AY  25200.13159981  .00007145  00000-0  34414-3 0  9998
2 43804  97.4706 258.0491 0012240  18.4148 341.7526 15.18986892362701
ISAT
1 43879U 18111D   25200.50693590  .00016547  00000-0  55144-3 0  9994
2 43879  97.5922 115.8117 0010390  65.5617 294.6707 15.31129587359806
UWE-4
1 43880U 18111E   25199.74376713  .00011373  00000-0  43329-3 0  9998
2 43880  97.5865 113.2277 0013727  76.5274 283.7493 15.26798694359605
Sparrow
1 43881U 18111F   25200.25984276  .00016275  00000-0  52116-3 0  9997
2 43881  97.6071 118.5939 0009056  98.1744 262.0525 15.32431560359868
Prox-1
1 44339U 19036A   25200.59218960  .00008232  00000-0  10153-2 0  9998
2 44339  23.9952 158.8319 0007704 167.4370 192.6320 14.80577141323959
SONATE
1 44400U 19038Q   25185.47540524  .09032085  27445-5  31847-3 0  9995
2 44400  97.6609 216.4776 0012462 246.7970 113.2018 16.43248376333575
Taurus 1
1 44530U 19059C   25200.85821950  .00004534  00000-0  83264-3 0  9999
2 44530  98.6102 342.1817 0008085 266.9386  93.0891 14.66204808309844
Duchifat 3
1 44854U 19089C   25200.80579781  .00040271  00000-0  70750-3 0  9992
2 44854  36.9418  98.8524 0007177 286.2586  73.7382 15.49523749309183
TO-108
1 44881U 19093C   25200.83683447  .00000725  00000-0  89704-4 0  9995
2 44881  97.7912 275.6438 0015264  98.9427 261.3516 14.85665537302058
